| time (UTC) | temp C | wind direction | speed KPH | gust KPH | rain 1hr cm | rain 24hr cm | rain mn cm | humidity % | barometer mb |
| 20260510214325 | 18 | 147 | 0.0 | 0.0 | 0.00 | 2.72 | 0.00 | 100 | 1012.5 |
| 20260510213825 | 18 | 145 | 0.0 | 0.0 | 0.00 | 2.74 | 0.00 | 100 | 1012.4 |
| 20260510213325 | 18 | 145 | 0.0 | 0.0 | 0.00 | 2.74 | 0.00 | 100 | 1012.4 |
| 20260510212826 | 19 | 145 | 0.0 | 0.0 | 0.00 | 2.74 | 0.00 | 100 | 1012.2 |
| 20260510212330 | 18 | 145 | 0.0 | 0.0 | 0.00 | 2.74 | 0.00 | 1 | 1012.1 |
| 20260510212324 | 18 | 145 | 0.0 | 0.0 | 0.00 | 2.74 | 0.00 | 100 | 1012.2 |
| 20260510211324 | 19 | 145 | 0.0 | 0.0 | 0.00 | 2.74 | 0.00 | 2 | 1012.1 |
| 20260510210828 | 19 | 168 | 0.0 | 0.0 | 0.00 | 2.74 | 0.00 | 4 | 1012.1 |
| 20260510210823 | 19 | 145 | 0.0 | 0.0 | 0.00 | 2.74 | 0.00 | 6 | 1012.1 |
| 20260510205829 | 18 | 168 | 0.0 | 0.0 | 0.00 | 2.77 | 0.00 | 6 | 1011.9 |
| 20260510205823 | 19 | 168 | 0.0 | 0.0 | 0.00 | 2.74 | 0.00 | 100 | 1012.1 |
| 20260510204823 | 18 | 168 | 0.0 | 0.0 | 0.00 | 2.77 | 0.00 | 12 | 1012.0 |
| 20260510204323 | 18 | 175 | 0.0 | 1.6 | 0.00 | 2.79 | 0.00 | 12 | 1012.0 |
| 20260510203822 | 18 | 134 | 0.0 | 1.6 | 0.00 | 2.79 | 0.00 | 13 | 1012.0 |
| 20260510203322 | 18 | 161 | 0.0 | 1.6 | 0.00 | 2.79 | 0.00 | 10 | 1012.1 |
| 20260510202823 | 18 | 116 | 0.0 | 3.2 | 0.00 | 2.82 | 0.00 | 9 | 1012.0 |
| 20260510202322 | 18 | 157 | 0.0 | 3.2 | 0.00 | 2.82 | 0.00 | 9 | 1012.1 |
| 20260510201823 | 18 | 113 | 0.0 | 3.2 | 0.00 | 2.82 | 0.00 | 7 | 1012.0 |
| 20260510201321 | 18 | 238 | 0.0 | 3.2 | 0.00 | 2.82 | 0.00 | 7 | 1012.0 |
| 20260510200827 | 18 | 203 | 0.0 | 3.2 | 0.00 | 2.82 | 0.00 | 5 | 1012.0 |
| 20260510200823 | 18 | 131 | 0.0 | 3.2 | 0.00 | 2.82 | 0.00 | 4 | 1012.0 |
| 20260510200443 | 18 | 89 | 0.0 | 1.6 | 0.00 | 2.82 | 0.00 | 100 | 1012.0 |
| 20260510195327 | 18 | 131 | 0.0 | 1.6 | 0.00 | 2.84 | 0.00 | 100 | 1012.2 |
| 20260510195322 | 18 | 151 | 0.0 | 1.6 | 0.00 | 2.82 | 0.00 | 100 | 1012.1 |
| 20260510194941 | 17 | 212 | 0.0 | 3.2 | 0.00 | 2.84 | 0.00 | 100 | 1012.3 |
| 20260510193821 | 17 | 127 | 0.0 | 3.2 | 0.00 | 2.84 | 0.00 | 100 | 1012.3 |
| 20260510193322 | 17 | 193 | 0.0 | 3.2 | 0.00 | 2.87 | 0.00 | 100 | 1012.3 |
| 20260510192820 | 17 | 141 | 0.0 | 1.6 | 0.00 | 2.87 | 0.00 | 100 | 1012.3 |
| 20260510192320 | 18 | 135 | 0.0 | 1.6 | 0.00 | 2.90 | 0.00 | 100 | 1012.5 |
| 20260510191821 | 18 | 130 | 0.0 | 3.2 | 0.00 | 2.92 | 0.00 | 100 | 1012.6 |
| 20260510191319 | 18 | 137 | 0.0 | 3.2 | 0.00 | 2.95 | 0.00 | 100 | 1012.6 |
| 20260510190820 | 18 | 223 | 0.0 | 1.6 | 0.00 | 2.97 | 0.00 | 100 | 1012.5 |
| 20260510190319 | 17 | 165 | 0.0 | 1.6 | 0.00 | 2.97 | 0.00 | 100 | 1012.6 |
| 20260510185820 | 17 | 231 | 0.0 | 3.2 | 0.00 | 3.00 | 0.00 | 100 | 1012.7 |
| 20260510185319 | 17 | 116 | 0.0 | 3.2 | 0.00 | 3.02 | 0.00 | 100 | 1012.7 |
| 20260510184824 | 17 | 104 | 0.0 | 3.2 | 0.00 | 3.05 | 0.00 | 100 | 1012.5 |
| 20260510184819 | 17 | 207 | 0.0 | 3.2 | 0.00 | 3.05 | 0.00 | 100 | 1012.7 |
| 20260510183819 | 18 | 158 | 0.0 | 3.2 | 0.00 | 3.07 | 0.00 | 100 | 1012.6 |
| 20260510183325 | 18 | 151 | 0.0 | 3.2 | 0.00 | 3.10 | 0.00 | 5 | 1012.5 |
| 20260510183320 | 18 | 154 | 0.0 | 1.6 | 0.00 | 3.07 | 0.00 | 100 | 1012.6 |
| 20260510182940 | 19 | 258 | 0.0 | 3.2 | 0.00 | 3.10 | 0.00 | 6 | 1012.5 |
| 20260510181818 | 20 | 172 | 0.0 | 1.6 | 0.00 | 3.12 | 0.00 | 3 | 1012.5 |
| 20260510181318 | 20 | 251 | 0.0 | 1.6 | 0.00 | 3.15 | 0.00 | 6 | 1012.4 |
| 20260510180817 | 20 | 141 | 0.0 | 4.8 | 0.00 | 3.17 | 0.00 | 13 | 1012.5 |
| 20260510180317 | 20 | 169 | 1.6 | 4.8 | 0.00 | 3.20 | 0.00 | 9 | 1012.5 |
| 20260510175818 | 20 | 227 | 0.0 | 3.2 | 0.00 | 3.23 | 0.00 | 100 | 1012.5 |
| 20260510175317 | 20 | 164 | 0.0 | 3.2 | 0.00 | 3.23 | 0.00 | 100 | 1012.6 |
| 20260510174818 | 20 | 116 | 0.0 | 3.2 | 0.00 | 3.23 | 0.00 | 100 | 1012.8 |
| 20260510174322 | 19 | 231 | 0.0 | 3.2 | 0.00 | 3.23 | 0.00 | 100 | 1012.7 |
| 20260510174317 | 20 | 117 | 1.6 | 3.2 | 0.00 | 3.23 | 0.00 | 100 | 1012.7 |
| 20260510173316 | 18 | 266 | 0.0 | 4.8 | 0.00 | 3.23 | 0.00 | 100 | 1012.7 |
| 20260510172817 | 18 | 154 | 0.0 | 4.8 | 0.00 | 3.23 | 0.00 | 100 | 1012.7 |
| 20260510172315 | 18 | 158 | 0.0 | 1.6 | 0.00 | 3.23 | 0.00 | 100 | 1012.7 |
| 20260510171820 | 18 | 131 | 0.0 | 3.2 | 0.00 | 3.23 | 0.00 | 100 | 1012.8 |
| 20260510171816 | 18 | 131 | 0.0 | 3.2 | 0.00 | 3.23 | 0.00 | 100 | 1012.7 |
| 20260510170820 | 17 | 125 | 0.0 | 3.2 | 0.00 | 3.23 | 0.00 | 100 | 1012.8 |
| 20260510170815 | 17 | 131 | 0.0 | 1.6 | 0.00 | 3.23 | 0.00 | 100 | 1012.9 |
| 20260510170436 | 17 | 134 | 0.0 | 4.8 | 0.00 | 3.23 | 0.00 | 100 | 1012.8 |
| 20260510165320 | 16 | 281 | 0.0 | 3.2 | 0.00 | 3.23 | 0.00 | 100 | 1012.9 |
| 20260510165315 | 16 | 165 | 0.0 | 4.8 | 0.00 | 3.23 | 0.00 | 100 | 1012.8 |
| 20260510164315 | 16 | 327 | 0.0 | 3.2 | 0.00 | 3.23 | 0.00 | 100 | 1013.1 |
| 20260510163815 | 16 | 276 | 0.0 | 1.6 | 0.00 | 3.23 | 0.00 | 100 | 1013.0 |
| 20260510163315 | 15 | 193 | 0.0 | 1.6 | 0.00 | 3.23 | 0.00 | 100 | 1013.0 |
| 20260510162815 | 15 | 135 | 0.0 | 1.6 | 0.00 | 3.23 | 0.00 | 100 | 1013.0 |
| 20260510162319 | 15 | 195 | 0.0 | 1.6 | 0.00 | 3.23 | 0.00 | 100 | 1013.1 |
| 20260510162314 | 15 | 283 | 0.0 | 1.6 | 0.00 | 3.23 | 0.00 | 100 | 1012.9 |
| 20260510161314 | 15 | 307 | 0.0 | 1.6 | 0.00 | 3.23 | 0.00 | 100 | 1013.0 |
| 20260510160813 | 15 | 147 | 0.0 | 4.8 | 0.00 | 3.23 | 0.00 | 100 | 1012.9 |
| 20260510160314 | 15 | 138 | 1.6 | 4.8 | 0.00 | 3.23 | 0.00 | 100 | 1013.0 |
| 20260510155813 | 15 | 142 | 0.0 | 3.2 | 0.00 | 3.23 | 0.00 | 100 | 1013.1 |
| 20260510155314 | 15 | 149 | 0.0 | 3.2 | 0.00 | 3.23 | 0.00 | 100 | 1013.1 |
| 20260510154813 | 15 | 178 | 0.0 | 1.6 | 0.00 | 3.23 | 0.00 | 100 | 1013.0 |
| 20260510154318 | 15 | 124 | 0.0 | 1.6 | 0.00 | 3.23 | 0.00 | 100 | 1013.1 |
| 20260510154312 | 15 | 159 | 0.0 | 1.6 | 0.00 | 3.23 | 0.00 | 100 | 1013.0 |
| 20260510153313 | 14 | 182 | 0.0 | 1.6 | 0.00 | 3.23 | 0.00 | 100 | 1013.3 |
| 20260510152813 | 14 | 120 | 0.0 | 1.6 | 0.00 | 3.23 | 0.00 | 100 | 1013.4 |
| 20260510152312 | 14 | 124 | 0.0 | 1.6 | 0.00 | 3.23 | 0.00 | 100 | 1013.4 |
| 20260510151811 | 14 | 264 | 0.0 | 1.6 | 0.00 | 3.23 | 0.00 | 100 | 1013.4 |
| 20260510151311 | 13 | 114 | 0.0 | 1.6 | 0.00 | 3.23 | 0.00 | 100 | 1013.4 |
| 20260510150812 | 13 | 158 | 0.0 | 1.6 | 0.00 | 3.23 | 0.00 | 100 | 1013.4 |
| 20260510150311 | 13 | 137 | 0.0 | 1.6 | 0.00 | 3.23 | 0.00 | 100 | 1013.5 |
| 20260510145811 | 13 | 166 | 0.0 | 1.6 | 0.00 | 3.23 | 0.00 | 100 | 1013.6 |
| 20260510145313 | 13 | 138 | 0.0 | 0.0 | 0.00 | 3.23 | 0.00 | 100 | 1013.5 |
| 20260510144811 | 13 | 144 | 0.0 | 0.0 | 0.00 | 3.23 | 0.00 | 100 | 1013.4 |
| 20260510144311 | 13 | 145 | 0.0 | 0.0 | 0.00 | 3.23 | 0.00 | 100 | 1013.3 |
| 20260510143810 | 13 | 145 | 0.0 | 1.6 | 0.00 | 3.23 | 0.00 | 100 | 1013.2 |
| 20260510143310 | 12 | 140 | 0.0 | 1.6 | 0.00 | 3.23 | 0.00 | 100 | 1013.2 |
| 20260510142811 | 12 | 182 | 0.0 | 0.0 | 0.00 | 3.23 | 0.00 | 100 | 1013.1 |
| 20260510142310 | 12 | 214 | 0.0 | 1.6 | 0.00 | 3.23 | 0.00 | 100 | 1013.2 |
| 20260510141810 | 12 | 214 | 0.0 | 1.6 | 0.00 | 3.23 | 0.00 | 100 | 1013.1 |
| 20260510141310 | 12 | 231 | 0.0 | 1.6 | 0.00 | 3.23 | 0.00 | 100 | 1013.0 |
| 20260510140811 | 12 | 127 | 0.0 | 3.2 | 0.00 | 3.23 | 0.00 | 100 | 1012.9 |
| 20260510140309 | 11 | 117 | 0.0 | 3.2 | 0.00 | 3.23 | 0.00 | 100 | 1013.0 |
| 20260510135809 | 11 | 220 | 0.0 | 0.0 | 0.00 | 3.23 | 0.00 | 100 | 1013.0 |
| 20260510135309 | 11 | 206 | 0.0 | 0.0 | 0.00 | 3.23 | 0.00 | 100 | 1013.0 |
| 20260510134809 | 11 | 138 | 0.0 | 0.0 | 0.00 | 3.23 | 0.00 | 100 | 1013.0 |
| 20260510134309 | 11 | 185 | 0.0 | 1.6 | 0.00 | 3.23 | 0.00 | 100 | 1013.0 |
| 20260510133808 | 11 | 185 | 0.0 | 1.6 | 0.00 | 3.23 | 0.00 | 100 | 1013.0 |
| 20260510133308 | 11 | 133 | 0.0 | 1.6 | 0.00 | 3.23 | 0.00 | 100 | 1013.0 |
| 20260510132808 | 12 | 141 | 0.0 | 1.6 | 0.00 | 3.23 | 0.00 | 100 | 1012.7 |
| 20260510132313 | 12 | 196 | 0.0 | 0.0 | 0.00 | 3.23 | 0.00 | 100 | 1012.8 |
| 20260510132308 | 12 | 196 | 0.0 | 0.0 | 0.00 | 3.23 | 0.00 | 100 | 1012.8 |
| 20260510131307 | 11 | 147 | 0.0 | 0.0 | 0.00 | 3.23 | 0.00 | 100 | 1012.8 |
| 20260510130808 | 11 | 144 | 0.0 | 0.0 | 0.00 | 3.23 | 0.00 | 100 | 1012.7 |
| 20260510130307 | 11 | 142 | 0.0 | 0.0 | 0.00 | 3.23 | 0.00 | 100 | 1012.8 |
| 20260510125807 | 11 | 149 | 0.0 | 0.0 | 0.00 | 3.23 | 0.00 | 100 | 1012.9 |
| 20260510125307 | 11 | 224 | 0.0 | 0.0 | 0.00 | 3.23 | 0.00 | 100 | 1012.7 |
| 20260510124811 | 11 | 224 | 0.0 | 0.0 | 0.00 | 3.23 | 0.00 | 100 | 1012.5 |
| 20260510124806 | 12 | 224 | 0.0 | 0.0 | 0.00 | 3.23 | 0.00 | 100 | 1012.7 |
| 20260510123806 | 11 | 224 | 0.0 | 0.0 | 0.00 | 3.23 | 0.00 | 100 | 1012.5 |
| 20260510123307 | 11 | 226 | 0.0 | 0.0 | 0.00 | 3.23 | 0.00 | 100 | 1012.5 |
| 20260510122806 | 11 | 226 | 0.0 | 0.0 | 0.00 | 3.23 | 0.00 | 100 | 1012.3 |
| 20260510122307 | 11 | 227 | 0.0 | 0.0 | 0.00 | 3.23 | 0.00 | 100 | 1012.3 |
| 20260510121806 | 11 | 175 | 0.0 | 0.0 | 0.00 | 3.23 | 0.00 | 100 | 1012.3 |
| 20260510121305 | 11 | 175 | 0.0 | 0.0 | 0.00 | 3.25 | 0.00 | 100 | 1012.2 |
| 20260510120806 | 11 | 125 | 0.0 | 0.0 | 0.00 | 3.25 | 0.00 | 100 | 1012.2 |
| 20260510120305 | 11 | 231 | 0.0 | 0.0 | 0.00 | 3.25 | 0.00 | 100 | 1012.2 |
| 20260510115806 | 11 | 231 | 0.0 | 0.0 | 0.00 | 3.25 | 0.00 | 100 | 1012.2 |
| 20260510115306 | 11 | 172 | 0.0 | 0.0 | 0.00 | 3.25 | 0.00 | 100 | 1012.2 |
| 20260510114805 | 11 | 182 | 0.0 | 0.0 | 0.00 | 3.25 | 0.00 | 100 | 1012.2 |
| 20260510114305 | 11 | 182 | 0.0 | 0.0 | 0.00 | 3.25 | 0.00 | 100 | 1012.1 |
| 20260510113804 | 11 | 197 | 0.0 | 0.0 | 0.00 | 3.25 | 0.00 | 100 | 1011.9 |
| 20260510113304 | 11 | 148 | 0.0 | 0.0 | 2.39 | 3.25 | 0.00 | 100 | 1011.9 |
| 20260510112804 | 11 | 148 | 0.0 | 1.6 | 2.39 | 3.25 | 0.00 | 100 | 1011.8 |
| 20260510112306 | 11 | 148 | 0.0 | 1.6 | 2.39 | 3.25 | 0.00 | 100 | 1011.8 |
| 20260510111803 | 11 | 175 | 0.0 | 0.0 | 2.39 | 3.25 | 0.00 | 100 | 1011.8 |
| 20260510111304 | 11 | 175 | 0.0 | 0.0 | 2.39 | 3.25 | 0.00 | 100 | 1011.9 |
| 20260510110808 | 11 | 175 | 0.0 | 0.0 | 2.39 | 3.25 | 0.00 | 100 | 1011.9 |
| 20260510110803 | 11 | 175 | 0.0 | 0.0 | 2.39 | 3.25 | 0.00 | 100 | 1011.9 |
| 20260510110424 | 11 | 175 | 0.0 | 0.0 | 2.39 | 3.25 | 0.00 | 100 | 1012.0 |
| 20260510105306 | 11 | 175 | 0.0 | 0.0 | 2.39 | 3.25 | 0.00 | 100 | 1011.9 |
| 20260510104803 | 11 | 175 | 0.0 | 0.0 | 2.39 | 3.25 | 0.00 | 100 | 1011.9 |
| 20260510104302 | 10 | 175 | 0.0 | 0.0 | 2.39 | 3.25 | 0.00 | 100 | 1011.7 |
| 20260510103802 | 10 | 175 | 0.0 | 0.0 | 2.39 | 3.25 | 0.00 | 100 | 1011.7 |
| 20260510103302 | -17 | 0.0 | 0.0 | 0.00 | 0.86 | 0.00 | 1011.7 | ||
| 20260510102801 | -17 | 0.0 | 0.0 | 0.00 | 0.86 | 0.00 | 1011.7 | ||
| 20260510102306 | -17 | 0.0 | 0.0 | 0.00 | 0.86 | 0.00 | 1011.7 | ||
| 20260510102300 | -17 | 0.0 | 0.0 | 0.00 | 0.86 | 0.00 | 1011.8 | ||
| 20260510101303 | -17 | 0.0 | 0.0 | 0.00 | 0.86 | 0.00 | 1011.7 | ||
| 20260510101259 | -17 | 0.0 | 0.0 | 0.00 | 0.86 | 0.00 | 1011.9 | ||
| 20260510100301 | -17 | 0.0 | 0.0 | 0.00 | 0.86 | 0.00 | 1011.7 | ||
| 20260510100257 | -17 | 0.0 | 0.0 | 0.00 | 0.86 | 0.00 | 1011.7 | ||
| 20260510095903 | -17 | 0.0 | 0.0 | 0.00 | 0.86 | 0.00 | 1011.7 | ||
| 20260510094759 | -17 | 0.0 | 0.0 | 0.00 | 0.86 | 0.00 | 1011.8 | ||
| 20260510094755 | -17 | 0.0 | 0.0 | 0.00 | 0.86 | 0.00 | 1011.9 | ||
| 20260510093753 | -17 | 0.0 | 0.0 | 0.00 | 0.86 | 0.00 | 1011.9 | ||
| 20260510093252 | -17 | 0.0 | 0.0 | 0.00 | 0.86 | 0.00 | 1011.9 | ||
| 20260510092751 | -17 | 0.0 | 0.0 | 0.00 | 0.86 | 0.00 | 1011.9 | ||
| 20260510092249 | -17 | 0.0 | 0.0 | 0.00 | 0.86 | 0.00 | 1012.0 | ||
| 20260510091748 | -17 | 0.0 | 0.0 | 0.00 | 0.86 | 0.00 | 1012.0 | ||
| 20260510091252 | -17 | 0.0 | 0.0 | 0.00 | 0.86 | 0.00 | 1012.0 | ||
| 20260510091248 | -17 | 0.0 | 0.0 | 0.00 | 0.86 | 0.00 | 1012.0 | ||
| 20260510090246 | -17 | 0.0 | 0.0 | 0.00 | 0.86 | 0.00 | 1012.0 | ||
| 20260510085745 | -17 | 0.0 | 0.0 | 0.00 | 0.86 | 0.00 | 1012.0 | ||
| 20260510085244 | -17 | 0.0 | 0.0 | 0.00 | 0.86 | 0.00 | 1012.0 | ||
| 20260510084743 | -17 | 0.0 | 0.0 | 0.00 | 0.86 | 0.00 | 1012.0 | ||
| 20260510084241 | -17 | 0.0 | 0.0 | 0.00 | 0.86 | 0.00 | 1012.1 | ||
| 20260510083740 | -17 | 0.0 | 0.0 | 0.00 | 0.86 | 0.00 | 1012.1 | ||
| 20260510083239 | -17 | 0.0 | 0.0 | 0.00 | 0.86 | 0.00 | 1012.0 | ||
| 20260510082738 | -17 | 0.0 | 0.0 | 0.00 | 0.86 | 0.00 | 1011.9 | ||
| 20260510082241 | -17 | 0.0 | 0.0 | 0.00 | 0.86 | 0.00 | 1011.5 | ||
| 20260510082237 | -17 | 0.0 | 0.0 | 0.00 | 0.86 | 0.00 | 1011.9 | ||
| 20260510081843 | -17 | 0.0 | 0.0 | 0.00 | 0.86 | 0.00 | 1011.3 | ||
| 20260510080740 | -17 | 0.0 | 0.0 | 0.00 | 0.86 | 0.00 | 1011.1 | ||
| 20260510080735 | -17 | 0.0 | 0.0 | 0.00 | 0.86 | 0.00 | 1011.1 | ||
| 20260510075732 | -17 | 0.0 | 0.0 | 0.00 | 0.86 | 0.00 | 1011.0 | ||
| 20260510075232 | -17 | 0.0 | 0.0 | 0.00 | 0.86 | 0.00 | 1011.1 | ||
| 20260510074730 | -17 | 0.0 | 0.0 | 0.00 | 0.86 | 0.00 | 1011.1 | ||
| 20260510074229 | -17 | 0.0 | 0.0 | 0.00 | 0.86 | 0.00 | 1011.0 | ||
| 20260510073728 | -17 | 0.0 | 0.0 | 0.00 | 0.86 | 0.00 | 1011.1 | ||
| 20260510073227 | -17 | 0.0 | 0.0 | 0.00 | 0.86 | 0.00 | 1011.2 | ||
| 20260510072727 | -17 | 0.0 | 0.0 | 0.00 | 0.86 | 0.00 | 1011.2 | ||
| 20260510072226 | -17 | 0.0 | 0.0 | 0.00 | 0.86 | 0.00 | 1011.2 | ||
| 20260510071729 | -17 | 0.0 | 0.0 | 0.00 | 0.86 | 0.00 | 1011.2 | ||
| 20260510071724 | -17 | 0.0 | 0.0 | 0.00 | 0.86 | 0.00 | 1011.2 | ||
| 20260510070722 | -17 | 0.0 | 0.0 | 0.00 | 0.86 | 0.00 | 1011.2 | ||
| 20260510070226 | -17 | 0.0 | 0.0 | 0.00 | 0.86 | 0.00 | 1011.1 | ||
| 20260510070221 | -17 | 0.0 | 0.0 | 0.00 | 0.86 | 0.00 | 1011.1 | ||
| 20260510065220 | -17 | 0.0 | 0.0 | 0.00 | 0.86 | 0.00 | 1011.1 | ||
| 20260510064719 | -17 | 0.0 | 0.0 | 0.00 | 0.86 | 0.00 | 1011.2 | ||
| 20260510064218 | -17 | 0.0 | 0.0 | 0.00 | 0.86 | 0.00 | 1011.2 | ||
| 20260510063717 | -17 | 0.0 | 0.0 | 0.00 | 0.86 | 0.00 | 1011.2 | ||
| 20260510063216 | -17 | 0.0 | 0.0 | 0.00 | 0.86 | 0.00 | 1011.0 | ||
| 20260510062715 | -17 | 0.0 | 0.0 | 0.00 | 0.86 | 0.00 | 1011.1 | ||
| 20260510062214 | -17 | 0.0 | 0.0 | 0.00 | 0.86 | 0.00 | 1010.9 | ||
| 20260510061713 | -17 | 0.0 | 0.0 | 0.00 | 0.86 | 0.00 | 1010.8 | ||
| 20260510061212 | -17 | 0.0 | 0.0 | 0.00 | 0.86 | 0.00 | 1010.9 | ||
| 20260510060711 | -17 | 0.0 | 0.0 | 0.00 | 0.86 | 0.00 | 1010.8 | ||
| 20260510060210 | -17 | 0.0 | 0.0 | 0.00 | 0.86 | 0.00 | 1010.9 | ||
| 20260510055709 | -17 | 0.0 | 0.0 | 0.00 | 0.86 | 0.00 | 1010.8 | ||
| 20260510055212 | -17 | 0.0 | 0.0 | 0.00 | 0.86 | 0.00 | 1010.9 | ||
| 20260510055208 | -17 | 0.0 | 0.0 | 0.00 | 0.86 | 0.00 | 1010.8 | ||
| 20260510054210 | -17 | 0.0 | 0.0 | 0.00 | 0.86 | 0.00 | 1011.1 | ||
| 20260510054206 | -17 | 0.0 | 0.0 | 0.00 | 0.86 | 0.00 | 1011.0 | ||
| 20260510053204 | -17 | 0.0 | 0.0 | 0.00 | 0.86 | 0.00 | 1011.1 | ||
| 20260510052703 | -17 | 0.0 | 0.0 | 0.00 | 0.86 | 0.00 | 1011.2 | ||
| 20260510052202 | -17 | 0.0 | 0.0 | 0.00 | 0.86 | 0.00 | 1011.1 | ||
| 20260510051701 | -17 | 0.0 | 0.0 | 0.00 | 0.86 | 0.00 | 1011.2 | ||
| 20260510051200 | -17 | 0.0 | 0.0 | 0.00 | 0.86 | 0.00 | 1011.1 | ||
| 20260510050659 | -17 | 0.0 | 0.0 | 0.00 | 0.86 | 0.00 | 1011.2 | ||
| 20260510050203 | -17 | 0.0 | 0.0 | 0.00 | 0.86 | 0.00 | 1011.1 | ||
| 20260510050159 | -17 | 0.0 | 0.0 | 0.00 | 0.86 | 0.00 | 1011.1 | ||
| 20260510045157 | -17 | 0.0 | 0.0 | 0.00 | 0.86 | 0.00 | 1011.1 | ||
| 20260510044655 | -17 | 0.0 | 0.0 | 0.00 | 0.86 | 0.00 | 1011.2 | ||
| 20260510044154 | -17 | 0.0 | 0.0 | 0.00 | 0.86 | 0.00 | 1011.1 | ||
| 20260510043653 | -17 | 0.0 | 0.0 | 0.00 | 0.86 | 0.00 | 1011.2 | ||
| 20260510043156 | -17 | 0.0 | 0.0 | 0.00 | 0.86 | 0.00 | 1011.1 | ||
| 20260510043152 | -17 | 0.0 | 0.0 | 0.00 | 0.86 | 0.00 | 1011.2 | ||
| 20260510042150 | -17 | 0.0 | 0.0 | 0.00 | 0.86 | 0.00 | 1011.1 | ||
| 20260510041649 | -17 | 0.0 | 0.0 | 0.00 | 0.86 | 0.00 | 1011.0 | ||
| 20260510041148 | -17 | 0.0 | 0.0 | 0.00 | 0.86 | 0.00 | 1010.9 | ||
| 20260510040647 | -17 | 0.0 | 0.0 | 0.00 | 0.86 | 0.00 | 1010.8 | ||
| 20260510040150 | -17 | 0.0 | 0.0 | 0.00 | 0.86 | 0.86 | 1010.7 | ||
| 20260510040146 | -17 | 0.0 | 0.0 | 0.00 | 0.86 | 0.00 | 1010.8 | ||
| 20260510035145 | -17 | 0.0 | 0.0 | 0.00 | 0.86 | 0.86 | 1010.6 | ||
| 20260510034644 | -17 | 0.0 | 0.0 | 0.00 | 0.86 | 0.86 | 1010.7 | ||
| 20260510034143 | -17 | 0.0 | 0.0 | 0.00 | 0.86 | 0.86 | 1010.7 | ||
| 20260510033642 | -17 | 0.0 | 0.0 | 0.00 | 0.86 | 0.86 | 1010.6 | ||
| 20260510033145 | -17 | 0.0 | 0.0 | 0.00 | 0.86 | 0.86 | 1010.5 | ||
| 20260510033141 | -17 | 0.0 | 0.0 | 0.00 | 0.86 | 0.86 | 1010.6 | ||
| 20260510032143 | -17 | 0.0 | 0.0 | 0.00 | 0.86 | 0.86 | 1010.7 | ||
| 20260510032139 | -17 | 0.0 | 0.0 | 0.00 | 0.86 | 0.86 | 1010.6 | ||
| 20260510031137 | -17 | 0.0 | 0.0 | 0.00 | 0.86 | 0.86 | 1010.8 | ||
| 20260510030636 | -17 | 0.0 | 0.0 | 0.00 | 0.86 | 0.86 | 1010.8 | ||
| 20260510030135 | 11 | 154 | 0.0 | 0.0 | 0.00 | 0.86 | 0.86 | 100 | 1010.7 |
| 20260510025633 | 11 | 157 | 0.0 | 0.0 | 0.00 | 0.86 | 0.86 | 100 | 1010.7 |
| 20260510025134 | 11 | 155 | 0.0 | 0.0 | 0.00 | 0.86 | 0.86 | 100 | 1010.8 |
| 20260510024634 | 11 | 155 | 0.0 | 0.0 | 0.00 | 0.86 | 0.86 | 100 | 1011.1 |
| 20260510024138 | 11 | 155 | 0.0 | 0.0 | 0.00 | 0.86 | 0.86 | 100 | 1010.9 |
| 20260510024133 | 11 | 155 | 0.0 | 0.0 | 0.00 | 0.86 | 0.86 | 100 | 1011.1 |
| 20260510023132 | 11 | 155 | 0.0 | 0.0 | 0.00 | 0.86 | 0.86 | 100 | 1011.0 |
| 20260510022633 | 11 | 155 | 0.0 | 0.0 | 0.00 | 0.86 | 0.86 | 100 | 1010.9 |
| 20260510022132 | 11 | 155 | 0.0 | 0.0 | 0.00 | 0.86 | 0.86 | 100 | 1010.8 |
| 20260510021633 | 11 | 155 | 0.0 | 0.0 | 0.00 | 0.86 | 0.86 | 100 | 1010.9 |
| 20260510021133 | 11 | 155 | 0.0 | 0.0 | 0.00 | 0.86 | 0.86 | 100 | 1010.9 |
| 20260510020631 | 11 | 155 | 0.0 | 0.0 | 0.00 | 0.86 | 0.86 | 100 | 1010.9 |
| 20260510020132 | 11 | 155 | 0.0 | 0.0 | 0.00 | 0.86 | 0.86 | 100 | 1010.9 |
| 20260510015632 | 11 | 154 | 0.0 | 0.0 | 0.00 | 0.86 | 0.86 | 100 | 1010.8 |
| 20260510015132 | 11 | 128 | 0.0 | 0.0 | 0.00 | 0.86 | 0.86 | 100 | 1010.8 |
| 20260510014632 | 11 | 128 | 0.0 | 0.0 | 0.00 | 0.86 | 0.86 | 100 | 1010.9 |
| 20260510014130 | 11 | 128 | 0.0 | 0.0 | 0.00 | 0.86 | 0.86 | 100 | 1011.0 |
| 20260510013632 | 11 | 128 | 0.0 | 0.0 | 0.00 | 0.86 | 0.86 | 100 | 1010.8 |
| 20260510013131 | 11 | 128 | 0.0 | 0.0 | 0.00 | 0.86 | 0.86 | 100 | 1010.6 |
| 20260510012631 | 11 | 128 | 0.0 | 0.0 | 0.00 | 0.86 | 0.86 | 100 | 1010.4 |
| 20260510012136 | 11 | 128 | 0.0 | 0.0 | 0.00 | 0.86 | 0.86 | 100 | 1010.3 |
| 20260510012131 | 11 | 128 | 0.0 | 0.0 | 0.00 | 0.86 | 0.86 | 100 | 1010.4 |
| 20260510011135 | 11 | 128 | 0.0 | 0.0 | 0.00 | 0.86 | 0.86 | 100 | 1010.4 |
| 20260510011130 | 11 | 128 | 0.0 | 0.0 | 0.00 | 0.86 | 0.86 | 100 | 1010.3 |
| 20260510010130 | 11 | 128 | 0.0 | 0.0 | 0.00 | 0.86 | 0.86 | 100 | 1010.4 |
| 20260510005635 | 11 | 128 | 0.0 | 0.0 | 0.00 | 0.86 | 0.86 | 100 | 1010.3 |
| 20260510005629 | 11 | 128 | 0.0 | 0.0 | 0.00 | 0.86 | 0.86 | 100 | 1010.2 |
| 20260510004629 | 12 | 128 | 0.0 | 0.0 | 0.00 | 0.86 | 0.86 | 100 | 1010.3 |
| 20260510004129 | 12 | 128 | 0.0 | 0.0 | 0.00 | 0.86 | 0.86 | 100 | 1010.2 |
| 20260510003634 | 12 | 128 | 0.0 | 0.0 | 0.00 | 0.86 | 0.86 | 100 | 1010.2 |
| 20260510003629 | 12 | 128 | 0.0 | 0.0 | 0.00 | 0.86 | 0.86 | 100 | 1010.2 |
| 20260510002634 | 12 | 106 | 0.0 | 0.0 | 0.00 | 0.86 | 0.86 | 100 | 1010.2 |
| 20260510002629 | 12 | 128 | 0.0 | 0.0 | 0.00 | 0.86 | 0.86 | 100 | 1010.1 |
| 20260510001634 | 12 | 106 | 0.0 | 0.0 | 0.00 | 0.86 | 0.86 | 100 | 1010.2 |
| 20260510001629 | 12 | 106 | 0.0 | 0.0 | 0.00 | 0.86 | 0.86 | 100 | 1010.2 |
| 20260510000629 | 12 | 106 | 0.0 | 0.0 | 0.03 | 0.86 | 0.86 | 100 | 1010.2 |
| 20260510000129 | 12 | 106 | 0.0 | 0.0 | 0.03 | 0.86 | 0.86 | 100 | 1010.1 |
| 20260509235628 | 12 | 58 | 0.0 | 0.0 | 0.05 | 0.86 | 0.86 | 100 | 1010.2 |
| 20260509235127 | 12 | 58 | 0.0 | 0.0 | 0.10 | 0.86 | 0.86 | 100 | 1010.2 |
| 20260509234626 | 12 | 58 | 0.0 | 0.0 | 0.13 | 0.86 | 0.86 | 100 | 1010.2 |
| 20260509234128 | 12 | 58 | 0.0 | 0.0 | 0.13 | 0.86 | 0.86 | 100 | 1010.1 |
| 20260509233627 | 12 | 58 | 0.0 | 0.0 | 0.13 | 0.86 | 0.86 | 100 | 1010.0 |
| 20260509233127 | 12 | 58 | 0.0 | 0.0 | 0.15 | 0.86 | 0.86 | 100 | 1010.1 |
| 20260509232628 | 12 | 58 | 0.0 | 0.0 | 0.18 | 0.86 | 0.86 | 100 | 1010.0 |
| 20260509232127 | 12 | 58 | 0.0 | 0.0 | 0.23 | 0.86 | 0.86 | 100 | 1009.9 |
| 20260509231626 | 12 | 58 | 0.0 | 1.6 | 0.30 | 0.86 | 0.86 | 100 | 1010.0 |
| 20260509231126 | 12 | 58 | 0.0 | 1.6 | 0.30 | 0.86 | 0.86 | 100 | 1009.8 |
| 20260509230627 | 12 | 207 | 0.0 | 1.6 | 0.30 | 0.84 | 0.84 | 100 | 1009.7 |
| 20260509230126 | 13 | 130 | 0.0 | 1.6 | 0.30 | 0.84 | 0.84 | 100 | 1009.8 |
| 20260509225626 | 13 | 120 | 0.0 | 1.6 | 0.28 | 0.81 | 0.81 | 100 | 1010.7 |
| 20260509225125 | 13 | 117 | 0.0 | 1.6 | 0.23 | 0.76 | 0.76 | 100 | 1011.0 |
| 20260509224625 | 13 | 159 | 0.0 | 0.0 | 0.20 | 0.74 | 0.74 | 100 | 1010.6 |
| 20260509224131 | 13 | 159 | 0.0 | 0.0 | 0.23 | 0.74 | 0.74 | 100 | 1010.6 |
| 20260509224125 | 13 | 159 | 0.0 | 0.0 | 0.20 | 0.74 | 0.74 | 100 | 1010.6 |
| 20260509223130 | 13 | 159 | 0.0 | 0.0 | 0.18 | 0.69 | 0.69 | 100 | 1010.7 |
| 20260509223125 | 13 | 159 | 0.0 | 0.0 | 0.20 | 0.71 | 0.71 | 100 | 1010.7 |
| 20260509222124 | 13 | 159 | 0.0 | 0.0 | 0.13 | 0.64 | 0.64 | 100 | 1011.0 |
| 20260509221629 | 13 | 159 | 0.0 | 0.0 | 0.05 | 0.56 | 0.56 | 100 | 1010.8 |
| 20260509221624 | 13 | 159 | 0.0 | 0.0 | 0.05 | 0.56 | 0.56 | 100 | 1011.1 |
| 20260509220628 | 13 | 159 | 0.0 | 0.0 | 0.03 | 0.53 | 0.53 | 100 | 1010.9 |
| 20260509220623 | 13 | 159 | 0.0 | 0.0 | 0.03 | 0.53 | 0.53 | 100 | 1010.5 |
| 20260509215624 | 13 | 159 | 0.0 | 0.0 | 0.05 | 0.53 | 0.53 | 100 | 1011.0 |
| 20260509215124 | 13 | 159 | 0.0 | 0.0 | 0.05 | 0.53 | 0.53 | 100 | 1010.8 |
| 20260509214623 | 13 | 159 | 0.0 | 0.0 | 0.08 | 0.53 | 0.53 | 100 | 1010.7 |